Orbital Elements at Epoch 2459000.5 (2020-May-31.0) TDB
Reference: JPL 20 (heliocentric ecliptic J2000)
Element | Value | Uncertainty (1-sigma) | Units |
e | .08454957487478257 | 5.6713e-08 | |
a | 3.148478152022428 | 4.6497e-08 | au |
q | 2.882275662766391 | 1.9563e-07 | au |
i | 10.74709788040625 | 6.9658e-06 | deg |
node | 50.15359962816056 | 2.5719e-05 | deg |
peri | 33.90476683375643 | 4.7942e-05 | deg |
M | 338.5612532550947 | 4.0934e-05 | deg |
tp | 2459122.019604132630 (2020-Sep-29.51960413) | 0.00023332 | TDB |
period | 2040.560393211558 5.59 | 4.5202e-05 1.238e-07 | d yr |
n | .1764221246269561 | 3.9081e-09 | deg/d |
Q | 3.414680641278466 | 5.0428e-08 | au |
|
| | Orbit Determination Parameters
Additional Information
|